Tracking 22093 objects as of 18-Jan-2021
HD Live streaming from Space Station
objects crossing your sky now

SL-8 R/B

Track SL-8 R/B now!
10-day predictions


NORAD ID: 18945
Int'l Code: 1988-016J
Perigee: 1,471.3 km
Apogee: 1,693.4 km
Inclination: 74.0 °
Period: 117.6 minutes
Semi major axis: 7953 km
RCS: 6.0441 m2 (large)
Launch date: March 11, 1988
Source: Commonwealth of Independent States (former USSR) (CIS)
Launch site: PLESETSK MISSILE AND SPACE COMPLEX (PKMTR)

Note: This is a ROCKET BODY
aabbcc
Your satellite tracking list
Your tracking list is empty




NASA's NSSDC Master Catalog

Two Line Element Set (TLE):
1 18945U 88016J   21017.73781628  .00000021  00000-0  31893-3 0  9993
2 18945  74.0085  94.5387 0139647  41.3271 127.5523 12.23995526468071
Source of the keplerian elements: AFSPC